Weather History for Marshfield, WI

Change the Weather History Date:

Monday, August 19, 2013

  Actual Average Record
Temperature  
Mean Temperature 68 °F -  
Max Temperature 82 °F 79 °F 93 °F (1916)
Min Temperature 55 °F 55 °F 36 °F (1967)
Cooling Degree Days 4    
Growing Degree Days 18 (Base 50)    
Moisture  
Dew Point 59 °F    
Average Humidity 72    
Maximum Humidity 93    
Minimum Humidity 47    
Precipitation  
Precipitation 0.00 in - - ()
Sea Level Pressure  
Sea Level Pressure 30.03 in    
Wind  
Wind Speed 6 mph (SW)    
Max Wind Speed 13 mph    
Max Gust Speed 20 mph    
Visibility 10 miles    
Events      
Averages and records for this station are not official NWS values.
T = Trace of Precipitation, MM = Missing Value Source: NWS Daily Summary

Daily Weather History Graph

Daily Weather History Graph

Search for Another Location

Airport:

Trip Planner

Search our weather history database for the weather conditions in past years. The results will help you decide how hot, cold, wet, or windy it might be!

Date:

Astronomy

Aug. 19, 2013 Rise Set
Actual Time 6:08 AM CDT 7:59 PM CDT
Civil Twilight 5:36 AM CDT 8:30 PM CDT
Nautical Twilight 4:58 AM CDT 9:08 PM CDT
Astronomical Twilight 4:17 AM CDT 9:50 PM CDT
Moon 6:50 PM CDT (8/19) 4:26 AM CDT (8/19)
Length of Visible Light 14h 53m
Length of Day
13h 51m
Waxing Gibbous, 97% of the Moon is Illuminated
Aug 19
Waxing Gibbous
Aug 20
Full
Aug 28
Last Quarter
Sep 5
New
Sep 12
First Quarter

Hourly Weather History & Observations

Time (CDT) Temp. Heat Index Dew Point Humidity Pressure Visibility Wind Dir Wind Speed Gust Speed Precip Events Conditions
12:54 AM 61.0 °F - 55.9 °F 83% 30.07 in 10.0 mi SSW 4.6 mph - N/A   Clear
1:54 AM 60.1 °F - 55.0 °F 83% 30.07 in 10.0 mi SSW 4.6 mph - N/A   Clear
2:54 AM 59.0 °F - 55.0 °F 87% 30.06 in 10.0 mi SW 5.8 mph - N/A   Clear
3:54 AM 57.9 °F - 54.0 °F 87% 30.06 in 10.0 mi SW 4.6 mph - N/A   Clear
4:54 AM 57.0 °F - 55.0 °F 93% 30.06 in 9.0 mi Calm Calm - N/A   Clear
5:54 AM 57.0 °F - 54.0 °F 89% 30.06 in 8.0 mi SW 3.5 mph - N/A   Clear
6:54 AM 55.9 °F - 54.0 °F 93% 30.06 in 6.0 mi Calm Calm - N/A   Clear
7:54 AM 61.0 °F - 57.9 °F 90% 30.05 in 9.0 mi SSW 5.8 mph - N/A   Clear
8:54 AM 68.0 °F - 57.9 °F 70% 30.05 in 10.0 mi SW 8.1 mph - N/A   Clear
9:54 AM 70.0 °F - 57.9 °F 65% 30.06 in 10.0 mi WSW 5.8 mph - N/A   Clear
10:54 AM 73.0 °F - 60.1 °F 64% 30.06 in 10.0 mi SSW 9.2 mph - N/A   Clear
11:54 AM 77.0 °F - 59.0 °F 54% 30.05 in 10.0 mi WSW 8.1 mph - N/A   Clear
12:54 PM 79.0 °F - 60.1 °F 52% 30.02 in 10.0 mi SW 12.7 mph - N/A   Clear
1:54 PM 79.0 °F - 60.1 °F 52% 30.02 in 10.0 mi SW 10.4 mph - N/A   Scattered Clouds
2:54 PM 82.0 °F 82.4 °F 60.1 °F 47% 30.01 in 10.0 mi SW 12.7 mph 18.4 mph N/A   Scattered Clouds
3:54 PM 82.0 °F 82.7 °F 61.0 °F 49% 30.00 in 10.0 mi WSW 11.5 mph 19.6 mph N/A   Mostly Cloudy
4:54 PM 81.0 °F 81.7 °F 61.0 °F 50% 30.00 in 10.0 mi SW 12.7 mph - N/A   Scattered Clouds
5:54 PM 79.0 °F - 62.1 °F 56% 29.99 in 10.0 mi WSW 10.4 mph - N/A   Clear
6:54 PM 77.0 °F - 63.0 °F 62% 29.99 in 10.0 mi SW 9.2 mph - N/A   Clear
7:54 PM 73.9 °F - 62.1 °F 66% 29.99 in 10.0 mi SW 6.9 mph - N/A   Clear
8:54 PM 69.1 °F - 62.1 °F 78% 29.99 in 10.0 mi SW 5.8 mph - N/A   Clear
9:54 PM 68.0 °F - 62.1 °F 81% 29.99 in 10.0 mi SW 6.9 mph - N/A   Clear
10:54 PM 66.0 °F - 62.1 °F 87% 30.00 in 9.0 mi SW 5.8 mph - N/A   Clear
11:54 PM 64.9 °F - 62.1 °F 90% 30.00 in 8.0 mi SSW 4.6 mph - N/A   Clear